Simultaneous Nadir Overpasses (SNOs) Predictions

Prediction of SNOs between AQUA and METOP-C Satellite Orbit:

Table of predicted SNOs for the next 14.0 days since TLE Epoch: 4/26/2019
Index Date (AQUA) Time (AQUA) Lat,Lon (AQUA) SZA (AQUA ) Date (METOP-C) Time (METOP-C) Lat,Lon (METOP-C) SZA (METOP-C ) Distance(km) Time Diff (sec)
1 04/28/2019 12:19:30 -73.73, 169.67 120.46 04/28/2019 12:18:17 -73.70, 169.48 120.47 6.87 73
2 04/28/2019 13:09:00 73.83, -22.93 59.65 04/28/2019 13:08:54 73.84, -22.85 59.65 2.37 6
3 04/28/2019 13:58:26 -73.88, 144.61 120.32 04/28/2019 13:59:35 -73.88, 144.57 120.33 1.53 69
4 05/01/2019 07:53:45 -73.76,-123.96 121.30 05/01/2019 07:52:40 -73.74,-124.01 121.30 2.44 65
5 05/01/2019 08:43:14 73.81, 43.56 58.75 05/01/2019 08:43:18 73.82, 43.52 58.77 1.91 4
6 05/01/2019 09:32:44 -74.06,-149.36 120.99 05/01/2019 09:33:55 -74.07,-148.56 121.02 24.49 71
7 05/04/2019 03:27:59 -73.79, -57.59 122.10 05/04/2019 03:27:02 -73.79, -57.50 122.10 2.76 57
8 05/04/2019 04:17:28 73.84, 109.92 57.95 05/04/2019 04:17:40 73.86, 110.01 57.96 3.05 12
9 05/04/2019 05:07:04 -74.40, -83.72 121.47 05/04/2019 05:08:11 -74.41, -81.30 121.53 72.31 67
10 05/06/2019 23:02:13 -73.78, 8.88 122.92 05/06/2019 23:01:26 -73.78, 8.89 122.91 0.70 47
11 05/06/2019 23:51:42 73.83, 176.39 57.13 05/06/2019 23:52:04 73.85, 176.38 57.15 1.44 22
12 05/09/2019 18:36:27 -73.77, 75.34 123.70 05/09/2019 18:35:50 -73.78, 75.28 123.68 2.14 37
13 05/09/2019 19:25:56 73.83,-117.16 56.36 05/09/2019 19:26:28 73.83,-117.25 56.37 2.91 32




NCC Satellite Simultaneous Nadir Overpasses (SNOs) Prediction Service
